User: anonymous   Login
Location: Cahoon Acres
(40.8736°N, 111.8994°W)
Time: 09:01:28
(UTC+00:00)
Language:

Explorer 7 - Orbit

View from above orbital plane
View from above orbital plane
View from above satellite
View from above satellite

Ground track
Ground track

The orbit data is extracted from the following two-line orbital elements,

1    22U 59009A   20150.65365210 -.00000053 +00000-0 +19280-4 0  9996
2    22 050.2829 190.2716 0139667 186.9940 172.9060 14.95141604467565
Epoch (UTC): 29 May 2020 15:41:15
Eccentricity: 0.0139667
inclination: 50.2829°
perigee height: 485 km
apogee height: 679 km
right ascension of ascending node: 190.2716°
argument of perigee: 186.9940°
revolutions per day: 14.95141604
mean anomaly at epoch: 172.9060°
orbit number at epoch: 46756

The dashed part of the orbit path shows where the satellite is in the earth's shadow,  

DLR